BAW22E KBNA-EGLL

Flight info

Callsign BAW22E
Flight time N/A
Altitude 37000
Route CHADM4 MUNNY DCT TONIO DCT HVQ DCT SLT DCT SYR DCT FAWNS DCT ANCER N749A LOMSI/M084F390 NATY BEXET/N0485F390 DCT DEVOL DCT LIFFY UL975 MALUD Q38 NUGRA
Aircraft A35K/H-SDE2E3GHIJ3J4J5LM1ORWXY/LB1D1

Departure

Time 2026-04-30 22:54
Airport Nashville International Airport (KBNA)

Arrival

Time N/A
Airport London Heathrow Airport (EGLL)
Time Latitude Longitude Altitude Speed Heading
2026-04-30 21:40 36.13055 -86.67069 570 ft 0 kts 82°
2026-04-30 21:49 36.13087 -86.67078 577 ft 0 kts 56°
2026-04-30 21:49 36.13055 -86.67069 571 ft 0 kts 82°
2026-04-30 21:50 36.13039 -86.67075 571 ft 0 kts 91°
2026-04-30 21:50 36.13087 -86.67078 577 ft 0 kts 56°
2026-04-30 21:51 36.13121 -86.67107 576 ft 0 kts 82°
2026-04-30 21:53 36.13055 -86.67069 581 ft 0 kts 82°
2026-04-30 21:53 36.13087 -86.67078 582 ft 0 kts 56°
2026-04-30 21:59 36.13121 -86.67107 575 ft 0 kts 82°
2026-04-30 21:59 36.13190 -86.67132 579 ft 0 kts 62°
2026-04-30 22:00 36.13039 -86.67075 584 ft 0 kts 91°
2026-04-30 22:01 36.13087 -86.67078 582 ft 0 kts 56°
2026-04-30 22:37 36.13084 -86.67084 575 ft 4 kts 56°
2026-04-30 22:37 36.13060 -86.67134 580 ft 4 kts 87°
2026-04-30 22:38 36.13079 -86.67172 581 ft 4 kts 154°
2026-04-30 22:38 36.13103 -86.67184 577 ft 0 kts 163°
2026-04-30 22:44 36.13099 -86.67182 578 ft 2 kts 163°
2026-04-30 22:45 36.12893 -86.67246 579 ft 9 kts 186°
2026-04-30 22:45 36.12792 -86.67345 581 ft 11 kts 223°
2026-04-30 22:46 36.12691 -86.67393 585 ft 6 kts 142°
2026-04-30 22:47 36.12369 -86.66978 581 ft 25 kts 134°
2026-04-30 22:47 36.12245 -86.66681 579 ft 21 kts 108°
2026-04-30 22:48 36.12198 -86.66554 576 ft 5 kts 156°
2026-04-30 22:49 36.11992 -86.66622 585 ft 17 kts 198°
2026-04-30 22:49 36.11675 -86.66749 592 ft 15 kts 198°
2026-04-30 22:50 36.11362 -86.66875 597 ft 2 kts 198°
2026-04-30 22:51 36.11325 -86.66879 597 ft 0 kts 157°
2026-04-30 22:51 36.11325 -86.66878 597 ft 0 kts 156°
2026-04-30 22:52 36.11323 -86.66877 597 ft 2 kts 152°
2026-04-30 22:52 36.11289 -86.66791 596 ft 3 kts 108°
2026-04-30 22:53 36.11304 -86.66755 596 ft 3 kts 20°
2026-04-30 22:53 36.11367 -86.66730 597 ft 35 kts 18°
2026-04-30 22:53 36.11850 -86.66536 586 ft 109 kts 18°
2026-04-30 22:54 36.13797 -86.65734 1588 ft 154 kts 21°
2026-04-30 22:55 36.16498 -86.63034 3071 ft 196 kts 43°
2026-04-30 22:55 36.18621 -86.60352 3691 ft 240 kts 42°
2026-04-30 22:56 36.21065 -86.57278 4914 ft 259 kts 43°
2026-04-30 22:56 36.21734 -86.50572 6667 ft 296 kts 109°
2026-04-30 22:57 36.20414 -86.45652 7475 ft 306 kts 109°
2026-04-30 22:57 36.19694 -86.40446 9053 ft 312 kts 89°
2026-04-30 22:58 36.19768 -86.35018 10425 ft 327 kts 88°
2026-04-30 22:59 36.19880 -86.25834 11402 ft 382 kts 88°
2026-04-30 22:59 36.19974 -86.15650 13181 ft 405 kts 88°